KUIPER-00040

Last updated on Thu Jul 03 2025 00:02:07 GMT+0000 (Coordinated Universal Time)

1 64501U 25134B 25183.58335648 -.00001354 00000+0 -29355-4 0 9994 2 64501 51.8657 287.0630 0011486 157.3766 251.8473 15.33671933 1519
UTC large
Height (km)
Speed (km/s)
/
Latitude / Longitude
Inclination (degrees)
Orbital Period (minutes)
Azimuth
Elevation
Range (km)
Doppler Factor

Next 0 passes for location: London (51.5072 / 0.1276)

Sorry there are no passes over London.